When you browse on this site, cookies collect data to enhance your experience and personalize the content and advertising you see.
Visit our Privacy Policy to learn more. By continuing to use the site, you agree to this use of cookies and data.

Hourly Weather Ondjiwa

Today, 26 September, Saturday

Time Temperature Precipitation Wind Pressure Humidity
00:00 +24°C° 0 mm 3 mps 666 mmHg 20%
01:00 +22°C° 0 mm 3 mps 666 mmHg 23%
02:00 +20°C° 0 mm 3 mps 665 mmHg 27%
03:00 +19°C° 0 mm 3 mps 665 mmHg 31%
04:00 +18°C° 0 mm 2 mps 665 mmHg 34%
05:00 +19°C° 0 mm 2 mps 665 mmHg 31%
06:00 +20°C° 0 mm 1 mps 666 mmHg 28%
07:00 +22°C° 0 mm 1 mps 667 mmHg 24%
08:00 +26°C° 0 mm 2 mps 667 mmHg 19%
09:00 +29°C° 0 mm 2 mps 668 mmHg 14%
10:00 +34°C° 0 mm 3 mps 669 mmHg 9%
11:00 +36°C° 0 mm 3 mps 668 mmHg 9%
12:00 +37°C° 0 mm 3 mps 667 mmHg 8%
13:00 +39°C° 0 mm 3 mps 667 mmHg 7%
14:00 +39°C° 0 mm 3 mps 666 mmHg 7%
15:00 +40°C° 0 mm 4 mps 665 mmHg 8%
16:00 +40°C° 0 mm 4 mps 665 mmHg 8%
17:00 +36°C° 0 mm 4 mps 665 mmHg 9%
18:00 +33°C° 0 mm 4 mps 664 mmHg 11%
19:00 +29°C° 0 mm 3 mps 664 mmHg 13%
20:00 +28°C° 0 mm 4 mps 665 mmHg 13%
21:00 +27°C° 0 mm 5 mps 665 mmHg 14%
22:00 +27°C° 0 mm 6 mps 665 mmHg 14%
23:00 +25°C° 0 mm 5 mps 665 mmHg 17%

Tomorrow, 27 September, Sunday

Time Temperature Precipitation Wind Pressure Humidity
00:00 +22°C° 0 mm 4 mps 664 mmHg 20%
01:00 +19°C° 0 mm 3 mps 664 mmHg 23%
02:00 +18°C° 0 mm 2 mps 664 mmHg 24%
03:00 +17°C° 0 mm 2 mps 663 mmHg 24%
04:00 +16°C° 0 mm 2 mps 663 mmHg 25%
05:00 +18°C° 0 mm 1 mps 664 mmHg 23%
06:00 +19°C° 0 mm 1 mps 665 mmHg 21%
07:00 +20°C° 0 mm 1 mps 666 mmHg 19%
08:00 +24°C° 0 mm 1 mps 666 mmHg 16%
09:00 +28°C° 0 mm 2 mps 667 mmHg 13%
10:00 +31°C° 0 mm 2 mps 667 mmHg 10%
11:00 +34°C° 0 mm 3 mps 667 mmHg 9%
12:00 +36°C° 0 mm 3 mps 666 mmHg 9%
13:00 +38°C° 0 mm 4 mps 666 mmHg 8%
14:00 +38°C° 0 mm 4 mps 665 mmHg 8%
15:00 +38°C° 0 mm 4 mps 665 mmHg 8%
16:00 +38°C° 0 mm 4 mps 664 mmHg 8%
17:00 +35°C° 0 mm 4 mps 664 mmHg 9%
18:00 +31°C° 0 mm 3 mps 664 mmHg 11%
19:00 +28°C° 0 mm 3 mps 664 mmHg 12%
20:00 +27°C° 0 mm 4 mps 664 mmHg 11%
21:00 +27°C° 0 mm 4 mps 665 mmHg 11%
22:00 +26°C° 0 mm 5 mps 665 mmHg 10%
23:00 +23°C° 0 mm 5 mps 665 mmHg 11%

Day after tomorrow, 28 September, Monday

Time Temperature Precipitation Wind Pressure Humidity
00:00 +21°C° 0 mm 4 mps 664 mmHg 12%
01:00 +19°C° 0 mm 4 mps 664 mmHg 12%
02:00 +18°C° 0 mm 3 mps 664 mmHg 15%
03:00 +17°C° 0 mm 2 mps 663 mmHg 17%
04:00 +15°C° 0 mm 2 mps 663 mmHg 20%
05:00 +16°C° 0 mm 2 mps 664 mmHg 19%
06:00 +18°C° 0 mm 1 mps 665 mmHg 18%
07:00 +19°C° 0 mm 1 mps 666 mmHg 17%
08:00 +23°C° 0 mm 1 mps 667 mmHg 13%
09:00 +28°C° 0 mm 2 mps 668 mmHg 9%
10:00 +32°C° 0 mm 2 mps 669 mmHg 5%
11:00 +35°C° 0 mm 2 mps 668 mmHg 5%
12:00 +37°C° 0 mm 3 mps 667 mmHg 5%
13:00 +38°C° 0 mm 3 mps 667 mmHg 5%
14:00 +39°C° 0 mm 3 mps 666 mmHg 5%
15:00 +39°C° 0 mm 3 mps 666 mmHg 5%
16:00 +40°C° 0 mm 4 mps 665 mmHg 5%
17:00 +36°C° 0 mm 4 mps 665 mmHg 7%
18:00 +32°C° 0 mm 4 mps 665 mmHg 9%
19:00 +28°C° 0 mm 3 mps 665 mmHg 10%
20:00 +28°C° 0 mm 4 mps 665 mmHg 10%
21:00 +27°C° 0 mm 4 mps 666 mmHg 11%
22:00 +26°C° 0 mm 5 mps 666 mmHg 11%
23:00 +23°C° 0 mm 4 mps 666 mmHg 12%

29 September, Tuesday

Time Temperature Precipitation Wind Pressure Humidity
00:00 +22°C° 0 mm 4 mps 665 mmHg 13%
01:00 +20°C° 0 mm 4 mps 665 mmHg 14%
02:00 +19°C° 0 mm 3 mps 665 mmHg 17%
03:00 +17°C° 0 mm 3 mps 664 mmHg 19%
04:00 +16°C° 0 mm 2 mps 664 mmHg 22%
05:00 +17°C° 0 mm 2 mps 665 mmHg 20%
06:00 +18°C° 0 mm 2 mps 666 mmHg 19%
07:00 +19°C° 0 mm 2 mps 667 mmHg 17%
08:00 +25°C° 0 mm 2 mps 667 mmHg 13%
09:00 +30°C° 0 mm 3 mps 668 mmHg 9%
10:00 +35°C° 0 mm 3 mps 669 mmHg 6%
11:00 +37°C° 0 mm 3 mps 668 mmHg 6%
12:00 +38°C° 0 mm 3 mps 667 mmHg 5%
13:00 +40°C° 0 mm 3 mps 667 mmHg 5%
14:00 +40°C° 0 mm 3 mps 666 mmHg 5%
15:00 +40°C° 0 mm 3 mps 666 mmHg 5%
16:00 +40°C° 0 mm 3 mps 665 mmHg 5%
17:00 +37°C° 0 mm 3 mps 665 mmHg 7%
18:00 +33°C° 0 mm 3 mps 664 mmHg 8%
19:00 +29°C° 0 mm 4 mps 664 mmHg 10%
20:00 +28°C° 0 mm 4 mps 664 mmHg 10%
21:00 +27°C° 0 mm 4 mps 665 mmHg 11%
22:00 +27°C° 0 mm 4 mps 665 mmHg 11%
23:00 +25°C° 0 mm 4 mps 665 mmHg 14%

30 September, Wednesday

Time Temperature Precipitation Wind Pressure Humidity
00:00 +22°C° 0 mm 4 mps 664 mmHg 17%
01:00 +20°C° 0 mm 3 mps 664 mmHg 20%
02:00 +19°C° 0 mm 3 mps 664 mmHg 23%
03:00 +17°C° 0 mm 2 mps 664 mmHg 26%
04:00 +16°C° 0 mm 1 mps 663 mmHg 28%
05:00 +18°C° 0 mm 1 mps 664 mmHg 27%
06:00 +18°C° 0 mm 2 mps 665 mmHg 25%
07:00 +19°C° 0 mm 2 mps 666 mmHg 23%
08:00 +24°C° 0 mm 2 mps 666 mmHg 17%
09:00 +28°C° 0 mm 3 mps 667 mmHg 12%
10:00 +33°C° 0 mm 3 mps 667 mmHg 6%
11:00 +35°C° 0 mm 4 mps 667 mmHg 6%
12:00 +37°C° 0 mm 4 mps 666 mmHg 5%
13:00 +40°C° 0 mm 4 mps 665 mmHg 5%
14:00 +40°C° 0 mm 4 mps 665 mmHg 5%
15:00 +40°C° 0 mm 4 mps 664 mmHg 5%
16:00 +38°C° 0 mm 4 mps 663 mmHg 5%
17:00 +35°C° 0 mm 4 mps 663 mmHg 7%
18:00 +31°C° 0 mm 3 mps 663 mmHg 9%
19:00 +28°C° 0 mm 2 mps 663 mmHg 11%
20:00 +27°C° 0 mm 3 mps 664 mmHg 13%
21:00 +25°C° 0 mm 5 mps 664 mmHg 15%
22:00 +22°C° 0 mm 6 mps 664 mmHg 17%
23:00 +20°C° 0 mm 5 mps 664 mmHg 23%

1 October, Thursday

Time Temperature Precipitation Wind Pressure Humidity
00:00 +18°C° 0 mm 4 mps 664 mmHg 28%
01:00 +17°C° 0 mm 4 mps 663 mmHg 34%
02:00 +14°C° 0 mm 3 mps 663 mmHg 36%
03:00 +14°C° 0 mm 2 mps 663 mmHg 39%
04:00 +13°C° 0 mm 1 mps 663 mmHg 41%
05:00 +14°C° 0 mm 1 mps 664 mmHg 39%
06:00 +15°C° 0 mm 1 mps 665 mmHg 37%
07:00 +16°C° 0 mm 1 mps 666 mmHg 35%
08:00 +21°C° 0 mm 1 mps 666 mmHg 26%
09:00 +24°C° 0 mm 1 mps 667 mmHg 18%
10:00 +28°C° 0 mm 2 mps 668 mmHg 10%
11:00 +29°C° 0 mm 2 mps 667 mmHg 8%
12:00 +31°C° 0 mm 3 mps 667 mmHg 7%
13:00 +34°C° 0 mm 3 mps 666 mmHg 5%
14:00 +34°C° 0 mm 3 mps 665 mmHg 5%
15:00 +34°C° 0 mm 4 mps 665 mmHg 6%
16:00 +35°C° 0 mm 4 mps 664 mmHg 6%
17:00 +31°C° 0 mm 3 mps 664 mmHg 7%
18:00 +28°C° 0 mm 3 mps 664 mmHg 8%
19:00 +25°C° 0 mm 2 mps 664 mmHg 10%
20:00 +24°C° 0 mm 2 mps 664 mmHg 10%
21:00 +23°C° 0 mm 2 mps 665 mmHg 10%
22:00 +22°C° 0 mm 3 mps 665 mmHg 10%
23:00 +20°C° 0 mm 3 mps 665 mmHg 12%
Show more